Weather History for Minneapolis Flying Cloud, MN

Change the Weather History Date:

Wednesday, May 2, 2012

  Actual Average Record
Temperature  
Mean Temperature 68 °F -  
Max Temperature 82 °F 65 °F 82 °F (2012)
Min Temperature 55 °F 44 °F 30 °F (2002)
Cooling Degree Days 3    
Growing Degree Days 18 (Base 50)    
Moisture  
Dew Point 57 °F    
Average Humidity 81    
Maximum Humidity 100    
Minimum Humidity 36    
Precipitation  
Precipitation 0.32 in - - ()
Sea Level Pressure  
Sea Level Pressure 29.67 in    
Wind  
Wind Speed 7 mph (SSE)    
Max Wind Speed 23 mph    
Max Gust Speed 34 mph    
Visibility 8 miles    
Events Rain , Thunderstorm    
Averages and records for this station are not official NWS values.
T = Trace of Precipitation, MM = Missing Value Source: NWS Daily Summary

Daily Weather History Graph

Daily Weather History Graph

Search for Another Location

Airport:

Trip Planner

Search our weather history database for the weather conditions in past years. The results will help you decide how hot, cold, wet, or windy it might be!

Date:

Astronomy

May. 02, 2012 Rise Set
Actual Time 6:01 AM CDT 8:20 PM CDT
Civil Twilight 5:28 AM CDT 8:53 PM CDT
Nautical Twilight 4:48 AM CDT 9:33 PM CDT
Astronomical Twilight 4:03 AM CDT 10:19 PM CDT
Moon 4:25 PM CDT (5/2) 3:41 AM CDT (5/2)
Length of Visible Light 15h 24m
Length of Day
14h 19m
Waxing Gibbous, 83% of the Moon is Illuminated
May 2
Waxing Gibbous
May 5
Full
May 12
Last Quarter
May 20
New
May 28
First Quarter

Hourly Weather History & Observations

Time (CDT) Temp. Heat Index Dew Point Humidity Pressure Visibility Wind Dir Wind Speed Gust Speed Precip Events Conditions
12:18 AM 60.8 °F - 57.2 °F 88% 29.66 in 2.5 mi SE 6.9 mph - 0.11 in Rain Rain
12:30 AM 60.8 °F - 57.2 °F 88% 29.65 in 2.5 mi SE 10.4 mph - 0.20 in Rain , Thunderstorm Heavy Rain
12:45 AM 60.8 °F - 59.0 °F 94% 29.59 in 2.5 mi East 17.3 mph - 0.29 in Rain Rain
12:53 AM 60.1 °F - 57.9 °F 93% 29.52 in 3.0 mi East 20.7 mph 28.8 mph 0.32 in Rain Rain
1:01 AM 60.8 °F - 57.2 °F 88% 29.50 in 6.0 mi East 23.0 mph 34.5 mph 0.00 in Rain Light Rain
1:53 AM 59.0 °F - 55.9 °F 90% 29.57 in 10.0 mi ESE 6.9 mph - 0.00 in   Partly Cloudy
2:53 AM 57.9 °F - 55.9 °F 93% 29.56 in 10.0 mi SE 5.8 mph - N/A   Clear
3:53 AM 57.9 °F - 55.0 °F 90% 29.57 in 10.0 mi SE 3.5 mph - N/A   Clear
4:17 AM 57.2 °F - 55.4 °F 94% 29.59 in 10.0 mi Calm Calm - N/A   Scattered Clouds
4:26 AM 57.2 °F - 55.4 °F 94% 29.59 in 10.0 mi Calm Calm - N/A   Mostly Cloudy
4:53 AM 57.9 °F - 55.9 °F 93% 29.60 in 9.0 mi Calm Calm - N/A   Overcast
5:45 AM 57.2 °F - 55.4 °F 94% 29.64 in 10.0 mi WNW 4.6 mph - N/A   Overcast
5:53 AM 57.9 °F - 55.9 °F 93% 29.63 in 10.0 mi Calm Calm - N/A   Overcast
6:22 AM 57.2 °F - 55.4 °F 94% 29.64 in 6.0 mi Calm Calm - N/A   Scattered Clouds
6:37 AM 55.4 °F - 53.6 °F 94% 29.65 in 2.0 mi Calm Calm - N/A   Clear
6:50 AM 57.2 °F - 57.2 °F 100% 29.66 in 3.0 mi Calm Calm - N/A   Partly Cloudy
6:53 AM 57.0 °F - 57.0 °F 100% 29.65 in 8.0 mi Calm Calm - N/A   Mostly Cloudy
7:24 AM 57.2 °F - 57.2 °F 100% 29.67 in 4.0 mi WSW 4.6 mph - N/A   Overcast
7:35 AM 57.2 °F - 57.2 °F 100% 29.68 in 2.5 mi WSW 5.8 mph - N/A   Overcast
7:48 AM 57.2 °F - 57.2 °F 100% 29.69 in 1.2 mi WSW 4.6 mph - N/A   Overcast
7:53 AM 57.9 °F - 57.0 °F 97% 29.69 in 1.0 mi SW 4.6 mph - N/A   Overcast
8:17 AM 59.0 °F - 57.2 °F 94% 29.70 in 3.0 mi SSW 3.5 mph - N/A   Overcast
8:53 AM 61.0 °F - 57.9 °F 90% 29.70 in 7.0 mi SW 6.9 mph - N/A   Overcast
9:53 AM 64.0 °F - 59.0 °F 84% 29.71 in 10.0 mi SSW 5.8 mph - N/A   Overcast
10:20 AM 66.2 °F - 59.0 °F 78% 29.72 in 10.0 mi Calm Calm - N/A   Partly Cloudy
10:53 AM 68.0 °F - 60.1 °F 76% 29.72 in 10.0 mi SW 4.6 mph - N/A   Clear
11:53 AM 72.0 °F - 60.1 °F 66% 29.74 in 10.0 mi Variable 3.5 mph - N/A   Clear
12:53 PM 75.0 °F - 61.0 °F 62% 29.76 in 10.0 mi Variable 5.8 mph - N/A   Clear
1:53 PM 78.1 °F - 62.1 °F 58% 29.75 in 10.0 mi SE 5.8 mph - N/A   Partly Cloudy
2:53 PM 80.1 °F 80.7 °F 59.0 °F 48% 29.74 in 10.0 mi South 4.6 mph - N/A   Clear
3:53 PM 81.0 °F - 52.0 °F 36% 29.73 in 10.0 mi South 4.6 mph - N/A   Clear
4:53 PM 81.0 °F 80.4 °F 53.1 °F 38% 29.73 in 10.0 mi Variable 4.6 mph - N/A   Clear
5:53 PM 81.0 °F 81.0 °F 57.0 °F 44% 29.74 in 10.0 mi South 8.1 mph - N/A   Clear
6:53 PM 77.0 °F - 57.9 °F 52% 29.72 in 10.0 mi SSE 3.5 mph - N/A   Clear
7:53 PM 78.1 °F - 57.9 °F 50% 29.72 in 10.0 mi ESE 6.9 mph - N/A   Clear
8:53 PM 75.0 °F - 59.0 °F 57% 29.72 in 10.0 mi ESE 4.6 mph - N/A   Clear
9:53 PM 70.0 °F - 60.1 °F 71% 29.74 in 10.0 mi South 8.1 mph - N/A   Scattered Clouds
10:53 PM 66.0 °F - 60.1 °F 81% 29.73 in 10.0 mi SE 6.9 mph - N/A   Scattered Clouds
11:53 PM 66.0 °F - 60.1 °F 81% 29.74 in 10.0 mi SSE 8.1 mph - N/A   Mostly Cloudy